Weather History for KCDH - February, 2014

Change the Weather History Date:

Tuesday, February 4, 2014

  Actual Average Record
Temperature  
Mean Temperature 34 °F -  
Max Temperature 35 °F 55 °F 76 °F (1932)
Min Temperature 32 °F 31 °F 4 °F (1951)
Degree Days  
Heating Degree Days 32    
Moisture  
Dew Point 30 °F    
Average Humidity 88    
Maximum Humidity 100    
Minimum Humidity 80    
Precipitation  
Precipitation 0.52 in - - ()
Sea Level Pressure  
Sea Level Pressure 30.02 in    
Wind  
Wind Speed - (North)    
Max Wind Speed -    
Max Gust Speed -    
Visibility 5 miles    
Events Rain    
Averages and records for this station are not official NWS values.
T = Trace of Precipitation, MM = Missing Value Source: NWS Daily Summary

Daily Weather History Graph

Daily Weather History Graph

Search for Another Location

Airport or City:

Trip Planner

Search our weather history database for the weather conditions in past years. The results will help you decide how hot, cold, wet, or windy it might be!

Date:

Astronomy

Feb. 04, 2014 Rise Set
Actual Time 7:05 AM CST 5:45 PM CST
Civil Twilight 6:39 AM CST 6:11 PM CST
Nautical Twilight 6:09 AM CST 6:40 PM CST
Astronomical Twilight 5:40 AM CST 7:10 PM CST
Moon 10:01 AM CST (2/4) 11:20 PM CST (2/4)
Length of Visible Light 11h 32m
Length of Day
10h 40m
Waxing Crescent, 29% of the Moon is Illuminated
Feb 4
Waxing Crescent
Feb 6
First Quarter
Feb 14
Full
Feb 22
Last Quarter
Mar 1
New

Hourly Weather History & Observations

Time (CST) Temp. Dew Point Humidity Pressure Visibility Wind Dir Wind Speed Gust Speed Precip Events Conditions
12:15 AM 32.0 °F 26.6 °F 80% 30.13 in 7.0 mi North - - N/A   Overcast
12:35 AM 32.0 °F 26.6 °F 80% 30.13 in 7.0 mi North - - N/A   Overcast
12:55 AM 32.0 °F 26.6 °F 80% 30.14 in 7.0 mi North - - N/A   Overcast
1:15 AM 32.0 °F 26.6 °F 80% 30.17 in 7.0 mi North - - N/A   Overcast
1:35 AM 32.0 °F 28.4 °F 87% 30.16 in 7.0 mi North - - N/A   Overcast
1:55 AM 32.0 °F 28.4 °F 87% 30.16 in 8.0 mi North - - N/A   Overcast
2:15 AM 32.0 °F 26.6 °F 80% 30.12 in 7.0 mi North - - N/A   Overcast
2:35 AM 32.0 °F 26.6 °F 80% 30.14 in 7.0 mi North - - N/A   Overcast
2:55 AM 32.0 °F 26.6 °F 80% 30.13 in 6.0 mi North - - N/A   Haze
3:15 AM 32.0 °F 26.6 °F 80% 30.12 in 6.0 mi North - - N/A   Haze
3:35 AM 32.0 °F 26.6 °F 80% 30.10 in 5.0 mi North - - N/A   Overcast
3:55 AM 32.0 °F 28.4 °F 87% 30.08 in 4.0 mi North - - N/A   Overcast
4:15 AM 32.0 °F 28.4 °F 87% 30.07 in 4.0 mi North - - N/A   Overcast
4:35 AM 32.0 °F 28.4 °F 87% 30.11 in 4.0 mi North - - N/A   Overcast
4:55 AM 32.0 °F 28.4 °F 87% 30.07 in 3.0 mi North - - N/A   Overcast
5:15 AM 32.0 °F 28.4 °F 87% 30.05 in 2.5 mi North - - N/A   Overcast
5:35 AM 32.0 °F 28.4 °F 87% 30.07 in 2.5 mi North - - N/A   Overcast
5:55 AM 32.0 °F 28.4 °F 87% 30.06 in 2.5 mi North - - N/A   Overcast
6:15 AM 32.0 °F 28.4 °F 87% 30.08 in 3.0 mi North - - N/A   Overcast
6:35 AM 32.0 °F 28.4 °F 87% 30.06 in 3.0 mi North - - N/A   Overcast
6:55 AM 32.0 °F 28.4 °F 87% 30.05 in 3.0 mi North - - N/A   Overcast
7:15 AM 32.0 °F 28.4 °F 87% 30.06 in 3.0 mi North - - N/A   Overcast
7:35 AM 32.0 °F 28.4 °F 87% 30.07 in 2.5 mi North - - 0.01 in Rain Light Rain
7:55 AM 32.0 °F 28.4 °F 87% 30.05 in 1.8 mi North - - 0.03 in Rain Heavy Rain
8:15 AM 32.0 °F 30.2 °F 93% 30.11 in 0.8 mi North - - 0.12 in Rain Heavy Rain
8:35 AM 32.0 °F 30.2 °F 93% 30.10 in 1.5 mi North - - 0.17 in Rain Heavy Rain
8:55 AM 32.0 °F 30.2 °F 93% 30.07 in 1.0 mi North - - 0.26 in Rain Heavy Rain
9:15 AM 32.0 °F 30.2 °F 93% 30.04 in 2.5 mi North - - 0.01 in Rain Light Rain
9:35 AM 32.0 °F 30.2 °F 93% 30.03 in 4.0 mi North - - 0.01 in Rain Light Rain
9:55 AM 32.0 °F 30.2 °F 93% 30.00 in 2.0 mi North - - 0.01 in Rain Light Rain
10:15 AM 32.0 °F 30.2 °F 93% 30.00 in 2.5 mi North - - N/A Rain Light Rain
10:35 AM 32.0 °F 30.2 °F 93% 30.01 in 1.5 mi North - - 0.01 in Rain Rain
10:55 AM 32.0 °F 30.2 °F 93% 30.01 in 1.2 mi North - - 0.03 in Rain Rain
11:15 AM 32.0 °F 32.0 °F 100% 30.01 in 0.8 mi North - - 0.04 in Rain Heavy Rain
11:35 AM 32.0 °F 32.0 °F 100% 30.02 in 1.2 mi North - - 0.05 in Rain Rain
11:55 AM 32.0 °F 32.0 °F 100% 30.02 in 0.8 mi North - - 0.07 in Rain Heavy Rain
12:15 PM 32.0 °F 32.0 °F 100% 29.98 in 2.0 mi North - - 0.01 in Rain Light Rain
12:35 PM 32.0 °F 32.0 °F 100% 29.95 in 3.0 mi North - - 0.01 in Rain Light Rain
12:55 PM 32.0 °F 32.0 °F 100% 29.94 in 1.0 mi North - - 0.03 in Rain Heavy Rain
1:15 PM 33.8 °F 32.0 °F 93% 29.94 in 1.2 mi North - - 0.01 in Rain Rain
1:35 PM 33.8 °F 32.0 °F 93% 29.93 in 1.0 mi North - - 0.02 in Rain Rain
1:55 PM 33.8 °F 32.0 °F 93% 29.91 in 1.2 mi North - - 0.03 in Rain Rain
2:15 PM 33.8 °F 32.0 °F 93% 29.89 in 2.0 mi North - - 0.01 in Rain Light Rain
2:35 PM 35.6 °F 32.0 °F 87% 29.90 in 1.2 mi North - - 0.01 in Rain Light Rain
2:55 PM 35.6 °F 32.0 °F 87% 29.91 in 3.0 mi North - - 0.01 in Rain Light Rain
3:15 PM 35.6 °F 32.0 °F 87% 29.89 in 3.0 mi North - - N/A Rain Light Rain
3:35 PM 35.6 °F 32.0 °F 87% 29.91 in 1.8 mi North - - 0.02 in Rain Light Rain
3:55 PM 35.6 °F 32.0 °F 87% 29.91 in 1.8 mi North - - 0.04 in Rain Light Rain
4:15 PM 35.6 °F 32.0 °F 87% 29.89 in 5.0 mi North - - 0.01 in Rain Light Rain
4:35 PM 35.6 °F 32.0 °F 87% 29.90 in 3.0 mi North - - 0.01 in Rain Light Rain
4:55 PM 35.6 °F 32.0 °F 87% 29.90 in 9.0 mi North - - 0.01 in   Overcast
5:15 PM 35.6 °F 32.0 °F 87% 29.92 in 10.0 mi North - - N/A   Overcast
5:35 PM 35.6 °F 32.0 °F 87% 29.93 in 8.0 mi North - - N/A   Overcast
5:55 PM 35.6 °F 32.0 °F 87% 29.94 in 9.0 mi North - - N/A   Mostly Cloudy
6:15 PM 35.6 °F 32.0 °F 87% 29.94 in 10.0 mi North - - N/A   Overcast
6:35 PM 35.6 °F 32.0 °F 87% 29.95 in 10.0 mi North - - N/A   Overcast
6:55 PM 35.6 °F 32.0 °F 87% 29.95 in 10.0 mi North - - N/A   Overcast
7:15 PM 35.6 °F 32.0 °F 87% 29.96 in 10.0 mi North - - N/A   Overcast
7:35 PM 35.6 °F 32.0 °F 87% 29.96 in 10.0 mi North - - N/A   Overcast
7:55 PM 35.6 °F 32.0 °F 87% 29.98 in 10.0 mi North - - N/A   Overcast
8:15 PM 35.6 °F 32.0 °F 87% 29.98 in 5.0 mi North - - N/A   Overcast
8:35 PM 35.6 °F 32.0 °F 87% 30.01 in 3.0 mi North - - N/A   Overcast
8:55 PM 35.6 °F 32.0 °F 87% 30.02 in 2.0 mi North - - N/A   Overcast
9:15 PM 35.6 °F 32.0 °F 87% 30.02 in 4.0 mi North - - N/A   Overcast
9:35 PM 35.6 °F 32.0 °F 87% 30.03 in 9.0 mi North - - N/A   Overcast
9:55 PM 35.6 °F 32.0 °F 87% 30.03 in 10.0 mi North - - N/A   Overcast
10:15 PM 35.6 °F 32.0 °F 87% 30.03 in 10.0 mi North - - N/A   Overcast
10:35 PM 35.6 °F 32.0 °F 87% 30.04 in 10.0 mi North - - N/A   Overcast
10:55 PM 35.6 °F 32.0 °F 87% 30.04 in 10.0 mi North - - N/A   Overcast
11:15 PM 35.6 °F 32.0 °F 87% 30.05 in 9.0 mi North - - N/A   Overcast
11:35 PM 35.6 °F 32.0 °F 87% 30.06 in 7.0 mi North - - N/A   Overcast
11:55 PM 35.6 °F 32.0 °F 87% 30.06 in 7.0 mi North - - N/A   Overcast